Location: Melbourne
(37.8170°S, 144.9670°E)
Time: 21:20:58
(UTC+10:00)

Daily predictions for brighter satellites

Satellite Brightness Start Highest point End
(mag) Time Altitude Azimuth Time Altitude Azimuth Time Altitude Azimuth
Cosmos 1513 Rocket 4.5 17:30:28 10° S 17:36:39 82° E 17:42:51 10° N
MSX 3.9 17:34:46 10° SSE 17:40:37 89° ENE 17:46:22 10° NNW
Okean 1 Rocket 3.2 17:37:02 10° N 17:41:32 89° W 17:46:08 10° S
Cosmos 2263 Rocket 2.2 17:36:23 10° SSW 17:42:07 72° ESE 17:47:48 10° NNE
Tiangong 2 2.2 17:41:53 10° NNW 17:44:06 25° NNE 17:46:20 10° E
Shenzhou-11 Module 2.7 17:44:43 10° W 17:47:37 40° SSW 17:50:18 11° ESE
Cosmos 1484 Rocket 3.3 17:44:41 10° SSE 17:48:13 37° E 17:51:45 10° NNE
Cosmos 1025 Rocket 3.1 17:46:35 10° S 17:51:02 87° W 17:55:26 10° N
Cosmos 2322 Rocket 2.9 17:49:00 10° NW 17:54:34 56° WSW 18:00:15 10° SSE
Lacrosse 5 rocket 2.8 17:57:01 10° W 18:00:21 28° SW 18:03:36 10° SSE
Cosmos 1816 Rocket 4.5 17:57:19 10° N 18:03:29 83° E 18:09:42 10° S
Cosmos 1842 4.0 18:01:07 10° SSE 18:04:41 30° ESE 18:08:12 10° NE
Cosmos 1975 3.8 18:06:39 10° NNW 18:10:35 50° W 18:14:38 10° S
Cosmos 2219 Rocket 3.4 18:07:20 10° NNE 18:11:41 23° E 18:14:11 17° ESE
GPS 2-04 Rocket1 3.6 18:10:06 10° W 18:13:38 42° NNW 18:17:19 10° ENE
Cosmos 1125 Rocket 3.8 18:12:06 10° N 18:17:03 45° ENE 18:21:26 13° SE
Tsikada Rocket 4.3 18:11:39 10° NNW 18:17:50 71° W 18:24:04 10° S
CSL-04 Rocket 4.3 18:15:56 10° SSE 18:21:06 36° E 18:26:10 10° NNE
Cosmos 1634 Rocket 4.0 18:15:56 10° S 18:22:16 61° E 18:28:32 10° NNE
Atlas Centaur 2 3.4 18:16:26 10° WNW 18:23:20 41° N 18:28:05 15° ENE
Okean-O 3.6 18:19:16 10° S 18:23:36 48° WSW 18:27:54 10° NNW
SL-16 R/B 3.9 18:19:23 10° WNW 18:24:22 31° WSW 18:29:25 10° S
Cosmos 2360 Rocket 2.4 18:19:59 10° NNW 18:25:39 73° WSW 18:31:24 10° SSE
SJ 16-02 1.3 18:22:01 10° NNW 18:26:25 89° WSW 18:30:47 11° SSE
ALOS 3.0 18:26:32 21° SE 18:28:51 33° E 18:33:04 10° NNE
Cosmos 2278 Rocket 4.1 18:29:30 10° SSE 18:30:09 11° SSE 18:30:09 11° SSE
FENGYUN 3A 4.1 18:33:18 20° SE 18:36:28 38° E 18:41:26 10° NNE
USA 267 3.3 18:32:02 18° SE 18:37:12 88° SW 18:43:47 10° NW
Cosmos 1455 Rocket 3.0 18:34:32 10° N 18:39:00 89° ENE 18:43:31 10° S
Landsat 4 3.6 18:35:31 10° NNE 18:39:20 72° ESE 18:43:13 10° S
Cosmos 2322 3.9 18:36:26 10° NNW 18:42:06 74° WSW 18:47:20 13° SSE
Cosmos 2333 Rocket 2.8 18:37:32 10° N 18:42:47 37° ENE 18:44:23 31° ESE
ERBS 2.6 18:39:32 10° NNW 18:42:54 48° NE 18:43:09 47° ENE
COSMOS 2428 2.7 18:37:21 10° N 18:42:58 62° ENE 18:46:29 24° SE
SMAP 3.0 18:38:49 10° SSE 18:43:34 85° ENE 18:48:15 10° NNW
Timation 1 Rocket 4.4 18:40:15 10° SSW 18:46:07 52° ESE 18:51:56 10° NE
Cosmos 1892 Rocket 4.1 18:44:49 10° SSW 18:49:10 61° W 18:53:28 10° N
Cosmos 1844 Rocket 2.7 18:48:56 10° SSW 18:54:35 60° ESE 19:00:11 10° NE
Aureole 1 Rocket 2.7 18:50:16 10° SSW 18:54:56 82° ESE 18:57:45 16° NNE
Cosmos 372 Rocket 4.2 18:49:58 10° NNW 18:55:08 69° WSW 18:59:21 16° S
Cosmos 1844 3.8 18:49:55 10° S 18:55:19 46° ESE 18:57:04 35° ENE
AQUARIUS 4.4 18:51:14 12° S 18:55:32 73° WSW 19:00:02 10° NNW
EO 1 Del DPAF 3.8 18:53:02 10° N 18:56:49 60° W 19:00:40 10° SSW
Cosmos 1048 Rocket 3.8 18:54:52 10° SSW 19:00:05 77° ESE 19:05:17 10° NNE
YAOGAN 1 3.0 19:01:07 45° NE 19:01:07 45° NE 19:04:41 10° N
ATLAS 2AS CENTAUR R/B 3.7 18:55:00 10° SW 19:01:04 45° WNW 19:07:39 10° N
Cosmos 2279 Rocket 3.9 18:58:11 10° S 19:04:31 78° E 19:10:45 10° N
Thor Agena Rocket 3.4 18:59:58 10° NNE 19:04:58 64° ESE 19:10:05 10° S
CZ-4 R/B 1.3 19:06:35 58° S 19:07:23 89° WSW 19:11:30 10° NNW
CZ-4C R/B 2.9 18:59:40 10° NNW 19:07:46 84° ENE 19:11:37 32° SE
USA 234 3.9 19:08:42 35° SE 19:09:19 36° SSE 19:15:12 10° SSW
Cosmos 1461 4.4 19:07:32 10° SSW 19:09:16 24° SSW 19:09:16 24° SSW
Centaur D-1AR AC-48 4.2 19:10:45 10° N 19:12:18 12° NNE 19:12:44 12° NNE
USA 32 4.2 19:07:11 10° N 19:12:26 72° W 19:17:46 10° S
NOAA 12 4.4 19:13:32 47° NE 19:13:32 47° NE 19:17:52 10° N
Nadezhda 4 Rocket 4.0 19:08:42 10° NNE 19:14:42 54° E 19:15:01 53° E
ATLAS 5 CENTAUR R/B 2.4 19:10:49 10° SSW 19:14:44 42° S 19:14:44 42° S
Tiangong 2 3.8 19:16:11 10° W 19:16:51 16° W 19:16:51 16° W
Ariane Rocket 2.9 19:19:35 46° S 19:21:09 85° WSW 19:26:16 10° NNW
CSL-04 Debris 4.4 19:18:24 21° S 19:22:11 69° WSW 19:27:38 10° NNW
Cosmos 2180 Rocket 4.5 19:20:46 10° S 19:27:14 86° W 19:33:33 10° N
NOSS 0 Rocket 3.9 19:22:05 10° N 19:27:53 63° ENE 19:27:53 63° ENE
Cosmos 1626 Rocket 4.0 19:25:43 10° SSW 19:30:38 60° NW 19:34:37 10° N
Cosmos 2285 Rocket 4.1 19:27:32 10° SSW 19:34:02 76° WNW 19:40:25 10° N
Cosmos 1980 4.3 19:31:38 10° N 19:35:31 43° N 19:35:31 43° N
NOSS 3-4 (A) 3.7 19:32:55 10° SW 19:39:53 73° WNW 19:42:53 34° NNE
NOSS 3-4 (C) 3.7 19:33:03 10° SW 19:40:00 73° WNW 19:42:48 36° NNE
NOSS 2-2 (E) 4.2 19:34:23 10° SW 19:41:11 79° WNW 19:41:17 79° NW
Cosmos 2237 Rocket 3.1 19:41:50 10° NNW 19:45:13 37° N 19:45:13 37° N
Cosmos 2219 Rocket 3.0 19:49:48 10° NW 19:55:15 46° WSW 19:55:57 43° SW
ALOS 4.4 20:05:03 22° SW 20:06:04 23° WSW 20:09:44 10° WNW
Atlas Centaur 2 3.6 20:06:07 10° WNW 20:10:43 34° NW 20:10:43 34° NW
Cosmos 2333 Rocket 3.9 20:22:03 10° WNW 20:26:27 29° WSW 20:26:27 29° WSW
